Location: Calvatone
(45.1167°N, 10.4333°E)
Time: 10:48:28
(UTC+00:00)

Cosmos 1763 Rocket - Pass Details

Date: 28 January 2023
Orbit: 733 x 778 km, 74.0° (Epoch: 28 March)

Event Time Altitude Azimuth Distance (km) Brightness Sun altitude
Rises 18:59:34 0° 336° (NNW) 3,234 7.1 -28.2°
Reaches altitude 10° 19:01:58 10° 334° (NNW) 2,297 6.3 -28.6°
Enters shadow 19:06:42 63° 282° (WNW) 837 3.8 -29.5°
